Regional Weather Roundup
Issued by NWS Huntsville, AL

Home | Current Version | Previous Version | Text Only | Print | Product List | Glossary On
Versions: 1 2 3 4 5 6 7 8 9 10 11 12 13 14 15 16 17 18 19 20 21 22 23 24 25 26 27 28 29 30 31 32 33 34 35 36 37 38 39 40 41 42 43 44 45 46 47 48 49 50
000
ASUS44 KHUN 301610
RWRHUN

WEATHER ROUNDUP FOR THE TENNESSEE VALLEY
NATIONAL WEATHER SERVICE HUNTSVILLE AL
1100 AM CDT THU JUL 30 2015

ALZ001>004-301700-
NORTHWEST ALABAMA

CITY           SKY/WX    TMP DP  RH WIND       PRES   REMARKS
COURTLAND HCN    N/A     81 N/A N/A NE3         N/A
RUSSELLVILLE     N/A     79 N/A N/A MISG        N/A
SHOALS AIRPORT PTSUNNY   85  73  67 N8        30.09R HX  91
SHOALS TVA RES   N/A     82 N/A N/A MISG        N/A
$$

ALZ005>007-016-301700-
NORTH CENTRAL ALABAMA

CITY           SKY/WX    TMP DP  RH WIND       PRES   REMARKS
DECATUR AP     PTSUNNY   84  76  76 NE9       30.07S HX  93
HUNTSVILLE AP  MOSUNNY   88  76  67 NE8       30.06R HX  99
HUN NWS/UAH      N/A     86  72  61 NE9         N/A  HX  92
MERIDIANVILLE  PTSUNNY   82  70  65 N8        30.07S
REDSTONE ARSN  PTSUNNY   85  76  72 N10       30.06R HX  94
VINEMONT AP    PTSUNNY   83  74  75 N5        30.10R
$$

ALZ008>010-301700-
NORTHEAST ALABAMA

CITY           SKY/WX    TMP DP  RH WIND       PRES   REMARKS
ALBERTVILLE    MOSUNNY   86  79  79 N8G16     30.06S HX  99
FORT PAYNE     MOSUNNY   86  68  54 NE3       30.05S
SCOTTSBORO AP  PTSUNNY   86  73  66 NE6       30.06R HX  93
SCOTTSBORO HCN   N/A     82 N/A N/A MISG        N/A
VALLEY HEAD      N/A     86 N/A N/A MISG        N/A
$$

TNZ076-096-097-301700-
SOUTHEASTERN MIDDLE TENNESSEE

CITY           SKY/WX    TMP DP  RH WIND       PRES   REMARKS
TULLAHOMA      PTSUNNY   81  70  69 N9        30.11S
WINCHESTER     MOSUNNY   82  73  74 N9        30.09R
$$

...SURROUNDING SITES...

CITY           SKY/WX    TMP DP  RH WIND       PRES   REMARKS
ATLANTA        PTSUNNY   88  74  63 E6        30.02S HX  96
ANNISTON       SUNNY     91  74  57 N7        30.02R HX 100
BIRMINGHAM     SUNNY     88  77  69 N6        30.05S HX 100
CHATTANOOGA    PTSUNNY   86  73  65 N12       30.05S HX  93
DALTON         SUNNY     86  73  66 N12       30.03S HX  93
GADSDEN        MOSUNNY   90  72  55 N9        30.02S HX  96
GOLDEN TRNGL   MOSUNNY   91  77  62 NE12      30.04R HX 105
HALEYVILLE     PTSUNNY   83  77  82 VRB7      30.11R HX  92
JACKSON TN     SUNNY     86  62  44 NE10      30.12S
MEMPHIS        SUNNY     87  67  51 N13       30.11R HX  90
NASHVILLE      MOSUNNY   85  62  46 N13       30.11S
ROME           SUNNY     90  71  53 N9        30.01S HX  96
SAVANNAH       SUNNY     84  32  15 N8        30.11R
TUPELO         SUNNY     87  73  62 NE12      30.07S HX  94
TUSCALOOSA     SUNNY     90  76  63 NE6       30.02S HX 101
$$

...GULF COAST WEATHER...

CITY           SKY/WX    TMP DP  RH WIND       PRES   REMARKS
GULFPORT       SUNNY     90  75  61 N7        30.00S HX 100
PASCAGOULA     MOSUNNY   90  76  63 N10       30.00F HX 101
MOBILE         MOSUNNY   90  76  63 N10       30.02S HX 101
GULF SHORES    MOSUNNY   87  75  68 N7        29.99S HX  96
PENSACOLA      PTSUNNY   89  75  63 NW5       29.98S HX  99
DESTIN         RAIN      84  77  79 N7        29.98S HX  94
PANAMA CITY    MOSUNNY   87  79  75 CALM      29.97F HX 101
APPALACHICOLA  TSTM      85  80  85 E6        29.97S HX  99
$$



USA.gov is the U.S. government's official web portal to all federal, state and local government web resources and services.